#timestamp,LO_Frequency,Hit,StdDev 
1517302815.8,286047022.4,N
1517302835.7,286047025.0,N
1517302855.5,286047023.1,N
1517302875.3,286047022.2,N
1517302895.2,286047022.1,N
1517302915.0,286047020.9,N
1517302915.9,286047020.9,N
1517302935.8,286047022.6,Y
1517302955.6,286046995.7,P
1517302975.4,286046995.0,N
1517302995.3,286046996.4,N
1517303015.1,286046998.1,N
1517303035.8,286047006.4,N
1517303055.7,286047006.3,N
1517303075.5,286047002.2,N
1517303095.4,286046999.6,N
1517303115.2,286046998.4,N
1517303135.0,286046998.7,N
1517303135.9,286046998.7,N
1517303155.8,286046999.2,N
1517303175.6,286046997.3,N
1517303195.4,286047003.3,N
1517303215.3,286047003.4,N
1517303235.1,286047005.3,N
1517303255.9,286047001.9,N
1517303275.7,286047011.9,N
1517303295.5,286046999.1,N
1517303315.4,286047001.5,N
1517303335.2,286047000.7,N
1517303355.0,286046998.6,N
1517303355.9,286046998.6,N
1517303375.8,286047001.3,N
1517303395.6,286047007.3,N
1517303415.5,286047006.7,N
1517303435.3,286046999.9,N
1517303455.1,286047000.3,N
1517303475.9,286046997.1,N
1517303495.7,286047000.9,N
1517303515.5,286047001.4,N
1517303535.4,286047008.3,N
1517303555.2,286047013.4,Y
1517303575.1,286047008.5,P
1517303576.0,286047008.5,N
1517303595.8,286047010.4,P
1517303615.6,286047013.7,Y
1517303635.5,286047001.4,P
1517303655.3,286047004.2,N
1517303675.1,286046998.5,N
1517303695.9,286046998.2,N
1517303715.7,286047000.3,N
1517303735.6,286047007.7,N
1517303755.4,286047008.9,N
1517303775.2,286046999.3,N
1517303795.1,286046991.6,N
1517303796.0,286046991.6,N
1517303815.8,286046986.3,N
1517303835.6,286047003.9,N
1517303855.5,286047005.6,N
1517303875.3,286047005.3,N
1517303895.2,286047006.1,N
1517303915.9,286047011.2,N
1517303935.7,286047013.8,N
1517303955.6,286047011.1,N
1517303975.4,286047012.4,N
1517303995.2,286047012.1,N
1517304015.1,286047015.6,N
1517304016.0,286047015.6,N
1517304035.8,286047010.6,N
1517304055.7,286047004.3,N
1517304075.5,286046994.1,N
1517304095.3,286046985.6,N
1517304115.2,286046982.8,N
1517304135.9,286046980.3,N
1517304155.7,286046974.8,N
1517304175.6,286046980.5,N
1517304195.4,286046988.8,N
1517304215.2,286047002.6,N
1517304235.1,286047003.7,N
1517304236.0,286047003.7,N
1517304255.8,286047006.9,N
1517304275.7,286047006.4,N
1517304295.5,286047008.0,N
1517304315.3,286047007.1,N
1517304335.2,286047005.7,N
1517304355.0,286047003.3,N
1517304355.9,286047003.3,N
1517304375.8,286047007.2,N
1517304395.6,286047004.4,N
1517304415.4,286047002.2,N
1517304435.3,286047001.4,N
1517304455.1,286047003.2,N
1517304475.8,286047004.3,N
1517304495.7,286047000.0,N
1517304515.5,286046998.3,N
1517304535.3,286047000.0,N
1517304555.2,286046993.2,N
1517304575.0,286046992.5,N
1517304575.9,286046992.5,N
1517304595.8,286046994.2,N
1517304615.6,286046998.3,N
1517304635.4,286046999.0,N
1517304655.3,286046993.4,N
1517304675.1,286046997.0,N
1517304695.8,286046997.3,N
1517304715.7,286046998.3,N
1517304735.5,286047003.3,N
1517304755.4,286047004.8,N
1517304775.2,286047011.9,N
1517304795.0,286047013.2,N
1517304795.9,286047013.2,N
1517304815.8,286047015.6,N
1517304835.6,286047006.3,N
1517304855.4,286047002.6,N
1517304875.3,286047001.8,N
1517304895.1,286047005.7,N
1517304915.9,286047008.7,N
1517304935.7,286047006.9,N
1517304955.5,286047006.3,N
1517304975.4,286047011.4,N
1517304995.2,286047016.0,N
1517305015.0,286047011.5,N
1517305016.0,286047011.5,N
1517305035.8,286047015.0,N
1517305055.6,286047018.3,N
1517305075.5,286047023.9,Y
1517305095.3,286047021.6,P
1517305115.1,286047014.1,N
1517305135.9,286047019.0,N
1517305155.7,286047016.3,N
1517305175.6,286047016.7,N
1517305195.4,286047019.6,Y
1517305215.2,286047004.0,P
1517305235.1,286046991.4,N
1517305236.0,286046991.4,N
1517305255.8,286046992.1,N
1517305275.6,286046999.6,N
1517305295.5,286046999.5,N
1517305315.3,286046999.3,N
1517305335.2,286046996.3,N
1517305355.9,286046988.8,N
1517305375.7,286046992.2,N
1517305395.6,286046992.1,N
1517305415.4,286046997.3,N
1517305435.2,286046991.3,N
1517305455.1,286046986.1,N
1517305456.0,286046986.1,N
1517305475.8,286046983.7,N
1517305495.7,286046988.9,N
1517305515.5,286046998.8,N
1517305535.3,286047001.9,N
1517305555.2,286047000.7,N
1517305575.9,286046996.7,N
1517305595.7,286046995.6,N
1517305615.6,286046994.7,N
1517305635.4,286046995.7,N
1517305655.2,286046997.2,N
1517305675.1,286047000.0,N
1517305676.0,286047000.0,N
1517305695.8,286047000.6,N
1517305715.7,286047002.6,N
1517305735.5,286046998.4,N
1517305755.3,286046996.9,N
1517305775.2,286047000.1,N
1517305795.0,286047005.7,N
1517305795.9,286047005.7,N
1517305815.8,286047003.8,N
1517305835.6,286047006.5,N
1517305855.4,286047001.4,N
1517305875.3,286047003.2,N
1517305895.1,286047006.8,N
1517305915.8,286047009.2,N
1517305935.7,286047008.4,N
1517305955.5,286047010.2,N
1517305975.4,286047014.7,N
1517305995.2,286047009.5,N
1517306015.0,286047006.9,N
1517306015.9,286047006.9,N
1517306035.8,286046998.2,N
1517306055.6,286047000.9,N
1517306075.4,286046995.1,N
1517306095.3,286046999.6,N
1517306115.1,286046999.8,N
1517306135.9,286047002.6,N
1517306155.7,286047000.6,N
1517306175.5,286046991.7,N
1517306195.4,286046995.5,N
1517306215.2,286046995.4,N
1517306235.1,286046999.5,N
1517306236.0,286046999.5,N
1517306255.8,286046997.3,N
1517306275.6,286046998.3,N
1517306295.5,286046999.4,N
1517306315.3,286046999.3,N
1517306335.1,286046998.6,N
1517306355.9,286046995.3,N
1517306375.7,286046996.7,N
1517306395.6,286047001.2,N
